When you browse on this site, cookies collect data to enhance your experience and personalize the content and advertising you see.
Visit our Privacy Policy to learn more. By continuing to use the site, you agree to this use of cookies and data.
  • în România
  • Lista ţărilor
  • Pe 7 zile
  • Temperatura apei
  • Hartă satelitară
  • Meteo pe hartă
  • Widget-uri
  • user-avatar
    Intrare

    Meteo pe oră la Shiraz

    Astăzi, 19 Noiembrie, Luni

    Timp Temperatura Precipitaţii Vânt Presiune Umiditate
    00:00 +12°C° 0 mm 0 m/s 637 mmHg 38%
    01:00 +12°C° 0 mm 0 m/s 637 mmHg 38%
    02:00 +11°C° 0 mm 0 m/s 637 mmHg 38%
    03:00 +11°C° 0 mm 0 m/s 637 mmHg 38%
    04:00 +10°C° 0 mm 0 m/s 636 mmHg 38%
    05:00 +10°C° 0 mm 0 m/s 636 mmHg 38%
    06:00 +10°C° 0 mm 0 m/s 636 mmHg 38%
    07:00 +9°C° 0 mm 0 m/s 636 mmHg 38%
    08:00 +11°C° 0 mm 0 m/s 637 mmHg 32%
    09:00 +13°C° 0 mm 0 m/s 638 mmHg 27%
    10:00 +15°C° 0 mm 0 m/s 639 mmHg 22%
    11:00 +18°C° 0 mm 1 m/s 639 mmHg 20%
    12:00 +19°C° 0 mm 1 m/s 639 mmHg 18%
    13:00 +20°C° 0 mm 1 m/s 639 mmHg 17%
    14:00 +20°C° 0 mm 1 m/s 639 mmHg 16%
    15:00 +20°C° 0 mm 1 m/s 639 mmHg 16%
    16:00 +20°C° 0 mm 1 m/s 639 mmHg 15%
    17:00 +19°C° 0 mm 1 m/s 638 mmHg 20%
    18:00 +18°C° 0 mm 1 m/s 638 mmHg 24%
    19:00 +16°C° 0 mm 1 m/s 638 mmHg 29%
    20:00 +15°C° 0 mm 1 m/s 638 mmHg 30%
    21:00 +14°C° 0 mm 0 m/s 638 mmHg 31%
    22:00 +13°C° 0 mm 0 m/s 638 mmHg 33%
    23:00 +13°C° 0 mm 0 m/s 637 mmHg 33%

    Mâine, 20 Noiembrie, Marţi

    Timp Temperatura Precipitaţii Vânt Presiune Umiditate
    00:00 +12°C° 0 mm 0 m/s 637 mmHg 33%
    01:00 +12°C° 0 mm 0 m/s 637 mmHg 33%
    02:00 +12°C° 0 mm 0 m/s 637 mmHg 33%
    03:00 +12°C° 0 mm 0 m/s 637 mmHg 33%
    04:00 +12°C° 0 mm 1 m/s 637 mmHg 32%
    05:00 +12°C° 0 mm 1 m/s 637 mmHg 32%
    06:00 +12°C° 0 mm 1 m/s 637 mmHg 32%
    07:00 +12°C° 0 mm 1 m/s 637 mmHg 32%
    08:00 +13°C° 0.1 mm 1 m/s 638 mmHg 32%
    09:00 +13°C° 0.1 mm 1 m/s 638 mmHg 31%
    10:00 +13°C° 0.1 mm 1 m/s 639 mmHg 31%
    11:00 +14°C° 0 mm 1 m/s 639 mmHg 31%
    12:00 +14°C° 0 mm 1 m/s 639 mmHg 31%
    13:00 +15°C° 0 mm 1 m/s 638 mmHg 31%
    14:00 +15°C° 0 mm 2 m/s 638 mmHg 32%
    15:00 +16°C° 0 mm 2 m/s 638 mmHg 33%
    16:00 +16°C° 0 mm 2 m/s 638 mmHg 34%
    17:00 +15°C° 0 mm 2 m/s 638 mmHg 38%
    18:00 +14°C° 0 mm 1 m/s 638 mmHg 42%
    19:00 +14°C° 0 mm 1 m/s 637 mmHg 45%
    20:00 +13°C° 0 mm 1 m/s 637 mmHg 47%
    21:00 +13°C° 0 mm 1 m/s 637 mmHg 49%
    22:00 +12°C° 0 mm 1 m/s 637 mmHg 51%
    23:00 +12°C° 0 mm 1 m/s 637 mmHg 52%

    Poimâine, 21 Noiembrie, Miercuri

    Timp Temperatura Precipitaţii Vânt Presiune Umiditate
    00:00 +12°C° 0 mm 1 m/s 637 mmHg 54%
    01:00 +11°C° 0 mm 1 m/s 637 mmHg 55%
    02:00 +11°C° 0 mm 1 m/s 636 mmHg 56%
    03:00 +11°C° 0 mm 1 m/s 636 mmHg 57%
    04:00 +10°C° 0 mm 1 m/s 636 mmHg 57%
    05:00 +10°C° 0 mm 1 m/s 636 mmHg 58%
    06:00 +10°C° 0 mm 1 m/s 636 mmHg 58%
    07:00 +9°C° 0 mm 1 m/s 636 mmHg 59%
    08:00 +11°C° 0 mm 1 m/s 637 mmHg 53%
    09:00 +12°C° 0 mm 1 m/s 637 mmHg 47%
    10:00 +13°C° 0 mm 1 m/s 638 mmHg 41%
    11:00 +14°C° 0 mm 1 m/s 638 mmHg 37%
    12:00 +15°C° 0 mm 1 m/s 638 mmHg 33%
    13:00 +16°C° 0 mm 1 m/s 638 mmHg 29%
    14:00 +16°C° 0 mm 2 m/s 638 mmHg 29%
    15:00 +16°C° 0 mm 2 m/s 637 mmHg 28%
    16:00 +16°C° 0 mm 2 m/s 637 mmHg 28%
    17:00 +15°C° 0 mm 1 m/s 637 mmHg 32%
    18:00 +15°C° 0 mm 1 m/s 637 mmHg 36%
    19:00 +14°C° 0 mm 1 m/s 637 mmHg 40%
    20:00 +13°C° 0 mm 1 m/s 637 mmHg 41%
    21:00 +12°C° 0 mm 0 m/s 637 mmHg 43%
    22:00 +11°C° 0 mm 0 m/s 638 mmHg 45%
    23:00 +11°C° 0 mm 0 m/s 637 mmHg 46%

    22 Noiembrie, Joi

    Timp Temperatura Precipitaţii Vânt Presiune Umiditate
    00:00 +11°C° 0 mm 0 m/s 637 mmHg 47%
    01:00 +10°C° 0 mm 0 m/s 637 mmHg 47%
    02:00 +10°C° 0 mm 0 m/s 637 mmHg 48%
    03:00 +10°C° 0 mm 0 m/s 636 mmHg 48%
    04:00 +9°C° 0 mm 0 m/s 636 mmHg 48%
    05:00 +9°C° 0 mm 0 m/s 636 mmHg 48%
    06:00 +9°C° 0 mm 0 m/s 636 mmHg 48%
    07:00 +9°C° 0 mm 0 m/s 637 mmHg 49%
    08:00 +10°C° 0 mm 0 m/s 638 mmHg 42%
    09:00 +12°C° 0 mm 0 m/s 639 mmHg 36%
    10:00 +14°C° 0 mm 0 m/s 639 mmHg 30%
    11:00 +16°C° 0 mm 1 m/s 639 mmHg 28%
    12:00 +18°C° 0 mm 1 m/s 639 mmHg 25%
    13:00 +18°C° 0 mm 1 m/s 639 mmHg 23%
    14:00 +19°C° 0 mm 1 m/s 638 mmHg 22%
    15:00 +18°C° 0 mm 2 m/s 638 mmHg 22%
    16:00 +18°C° 0 mm 2 m/s 638 mmHg 21%
    17:00 +18°C° 0 mm 1 m/s 638 mmHg 25%
    18:00 +16°C° 0 mm 1 m/s 638 mmHg 28%
    19:00 +15°C° 0 mm 1 m/s 638 mmHg 32%
    20:00 +15°C° 0 mm 1 m/s 638 mmHg 33%
    21:00 +14°C° 0 mm 1 m/s 638 mmHg 34%
    22:00 +14°C° 0 mm 1 m/s 638 mmHg 36%
    23:00 +13°C° 0 mm 1 m/s 638 mmHg 36%

    23 Noiembrie, Vineri

    Timp Temperatura Precipitaţii Vânt Presiune Umiditate
    00:00 +13°C° 0 mm 1 m/s 638 mmHg 37%
    01:00 +13°C° 0 mm 1 m/s 637 mmHg 37%
    02:00 +13°C° 0 mm 1 m/s 637 mmHg 38%
    03:00 +12°C° 0 mm 1 m/s 637 mmHg 38%
    04:00 +12°C° 0 mm 1 m/s 637 mmHg 38%
    05:00 +12°C° 0 mm 1 m/s 637 mmHg 39%
    06:00 +11°C° 0 mm 1 m/s 637 mmHg 39%
    07:00 +11°C° 0 mm 1 m/s 637 mmHg 39%
    08:00 +12°C° 0 mm 2 m/s 638 mmHg 36%
    09:00 +14°C° 0 mm 2 m/s 638 mmHg 32%
    10:00 +15°C° 0 mm 2 m/s 639 mmHg 29%
    11:00 +16°C° 0 mm 3 m/s 639 mmHg 27%
    12:00 +17°C° 0 mm 3 m/s 639 mmHg 25%
    13:00 +18°C° 0 mm 4 m/s 638 mmHg 23%
    14:00 +17°C° 0 mm 4 m/s 638 mmHg 25%
    15:00 +16°C° 0 mm 5 m/s 638 mmHg 27%
    16:00 +15°C° 0 mm 5 m/s 638 mmHg 29%
    17:00 +14°C° 0.4 mm 4 m/s 638 mmHg 37%
    18:00 +13°C° 0.4 mm 3 m/s 639 mmHg 45%
    19:00 +12°C° 0.4 mm 3 m/s 639 mmHg 53%
    20:00 +13°C° 0 mm 2 m/s 639 mmHg 56%
    21:00 +13°C° 0 mm 2 m/s 639 mmHg 58%
    22:00 +13°C° 0 mm 2 m/s 639 mmHg 60%
    23:00 +12°C° 0 mm 1 m/s 639 mmHg 62%

    24 Noiembrie, Sâmbătă

    Timp Temperatura Precipitaţii Vânt Presiune Umiditate
    00:00 +12°C° 0 mm 1 m/s 639 mmHg 65%
    01:00 +12°C° 0 mm 1 m/s 639 mmHg 67%
    02:00 +12°C° 0 mm 1 m/s 639 mmHg 70%
    03:00 +10°C° 0 mm 0 m/s 639 mmHg 72%
    04:00 +10°C° 0 mm 0 m/s 639 mmHg 74%
    05:00 +10°C° 0 mm 0 m/s 639 mmHg 75%
    06:00 +10°C° 0 mm 0 m/s 639 mmHg 75%
    07:00 +10°C° 0 mm 0 m/s 640 mmHg 76%
    08:00 +11°C° 0 mm 0 m/s 640 mmHg 71%
    09:00 +13°C° 0 mm 1 m/s 641 mmHg 66%
    10:00 +14°C° 0 mm 1 m/s 641 mmHg 61%
    11:00 +15°C° 0 mm 1 m/s 641 mmHg 58%
    12:00 +15°C° 0 mm 1 m/s 641 mmHg 54%
    13:00 +16°C° 0 mm 1 m/s 641 mmHg 51%
    14:00 +16°C° 0 mm 1 m/s 641 mmHg 50%
    15:00 +16°C° 0 mm 1 m/s 640 mmHg 49%
    16:00 +18°C° 0 mm 1 m/s 640 mmHg 48%
    17:00 +16°C° 0 mm 1 m/s 641 mmHg 52%
    18:00 +16°C° 0 mm 1 m/s 641 mmHg 55%
    19:00 +15°C° 0 mm 1 m/s 641 mmHg 58%
    20:00 +15°C° 0.4 mm 1 m/s 641 mmHg 62%
    21:00 +14°C° 0.4 mm 1 m/s 641 mmHg 66%
    22:00 +14°C° 0.4 mm 1 m/s 641 mmHg 70%
    23:00 +13°C° 0.2 mm 1 m/s 641 mmHg 72%
    Arată mai mult